TimeEST,TemperatureF,Dew PointF,Humidity,Sea Level PressureIn,VisibilityMPH,Wind Direction,Wind SpeedMPH,Gust SpeedMPH,PrecipitationIn,Events,Conditions,WindDirDegrees,DateUTC
12:15 AM,28.2,23.9,84,30.39,10.0,NNW,3.5,-,N/A,,Clear,340,2012-11-15 05:15:00
12:35 AM,30.2,25.9,84,30.38,10.0,Calm,Calm,-,N/A,,Clear,0,2012-11-15 05:35:00
12:55 AM,29.3,24.8,83,30.37,10.0,NNW,3.5,-,N/A,,Clear,340,2012-11-15 05:55:00
1:15 AM,27.1,23.9,88,30.37,10.0,North,4.6,-,N/A,,Clear,360,2012-11-15 06:15:00
1:35 AM,26.8,23.4,87,30.36,10.0,North,5.8,-,N/A,,Clear,360,2012-11-15 06:35:00
1:55 AM,26.8,23.4,87,30.35,10.0,North,5.8,-,N/A,,Clear,360,2012-11-15 06:55:00
2:15 AM,27.9,24.3,86,30.34,10.0,North,5.8,-,N/A,,Clear,10,2012-11-15 07:15:00
2:35 AM,26.8,24.1,90,30.33,7.0,NNE,4.6,-,N/A,,Clear,20,2012-11-15 07:35:00
2:55 AM,26.6,23.7,89,30.33,7.0,North,6.9,-,N/A,,Clear,10,2012-11-15 07:55:00
3:15 AM,26.2,23.5,90,30.33,10.0,North,5.8,-,N/A,,Clear,10,2012-11-15 08:15:00
3:35 AM,27.3,24.1,88,30.33,10.0,North,5.8,-,N/A,,Clear,350,2012-11-15 08:35:00
3:55 AM,27.0,24.1,89,30.33,10.0,Calm,Calm,-,N/A,,Clear,0,2012-11-15 08:55:00
4:15 AM,26.6,23.7,89,30.33,10.0,North,4.6,-,N/A,,Clear,350,2012-11-15 09:15:00
4:35 AM,26.6,23.7,89,30.33,7.0,North,3.5,-,N/A,,Clear,360,2012-11-15 09:35:00
4:55 AM,26.4,23.5,89,30.33,7.0,Calm,Calm,-,N/A,,Clear,0,2012-11-15 09:55:00
5:15 AM,25.5,23.5,92,30.34,7.0,NNW,3.5,-,N/A,,Clear,330,2012-11-15 10:15:00
5:35 AM,22.6,20.3,91,30.34,7.0,Calm,Calm,-,N/A,,Clear,0,2012-11-15 10:35:00
5:55 AM,23.5,21.9,94,30.35,7.0,WNW,3.5,-,N/A,,Clear,290,2012-11-15 10:55:00
6:15 AM,22.3,20.5,93,30.36,7.0,Calm,Calm,-,N/A,,Clear,0,2012-11-15 11:15:00
6:35 AM,24.1,22.8,95,30.36,5.0,Calm,Calm,-,N/A,,Clear,0,2012-11-15 11:35:00
6:55 AM,22.8,21.7,96,30.36,5.0,NW,3.5,-,N/A,,Clear,310,2012-11-15 11:55:00
7:15 AM,22.6,21.2,94,30.36,5.0,WNW,3.5,-,N/A,,Clear,300,2012-11-15 12:15:00
7:20 AM,23.0,21.2,93,30.36,5.0,WNW,3.5,-,N/A,,Clear,300,2012-11-15 12:20:00
7:50 AM,24.8,21.2,86,30.37,5.0,NW,4.6,-,N/A,,Clear,310,2012-11-15 12:50:00
8:50 AM,30.2,26.6,86,30.37,7.0,NNW,3.5,-,N/A,,Clear,340,2012-11-15 13:50:00
9:50 AM,35.6,28.4,75,30.36,7.0,North,3.5,-,N/A,,Clear,360,2012-11-15 14:50:00
10:50 AM,39.2,28.4,65,30.36,10.0,NNW,6.9,-,N/A,,Clear,330,2012-11-15 15:50:00
11:55 AM,42.8,28.4,57,30.35,10.0,North,4.6,-,N/A,,Clear,360,2012-11-15 16:55:00
12:50 PM,44.6,28.4,53,30.33,10.0,NNE,4.6,-,N/A,,Clear,20,2012-11-15 17:50:00
1:47 PM,44.6,28.4,53,30.32,10.0,Calm,Calm,-,N/A,,Clear,0,2012-11-15 18:47:00
2:50 PM,46.4,26.6,46,30.31,10.0,Calm,Calm,-,N/A,,Clear,0,2012-11-15 19:50:00
4:55 PM,42.8,30.2,61,30.30,10.0,NW,4.6,-,N/A,,Clear,310,2012-11-15 21:55:00
6:55 PM,37.4,30.2,75,30.32,10.0,NW,5.8,-,N/A,,Clear,320,2012-11-15 23:55:00
8:15 PM,35.6,30.0,80,30.33,10.0,NNW,5.8,-,N/A,,Clear,330,2012-11-16 01:15:00
8:35 PM,35.1,29.8,81,30.33,10.0,NNW,4.6,-,N/A,,Clear,340,2012-11-16 01:35:00
8:55 PM,35.1,29.8,81,30.34,10.0,NNW,5.8,-,N/A,,Clear,340,2012-11-16 01:55:00
9:15 PM,35.8,30.4,81,30.34,10.0,NNW,6.9,-,N/A,,Clear,330,2012-11-16 02:15:00
9:35 PM,35.6,30.7,82,30.34,10.0,NNW,5.8,-,N/A,,Clear,330,2012-11-16 02:35:00
9:55 PM,34.7,30.2,84,30.35,10.0,NNW,4.6,-,N/A,,Clear,330,2012-11-16 02:55:00
10:15 PM,34.0,29.8,85,30.35,10.0,NNW,4.6,-,N/A,,Clear,330,2012-11-16 03:15:00
10:35 PM,34.2,30.2,85,30.34,10.0,NNW,4.6,-,N/A,,Clear,330,2012-11-16 03:35:00
10:55 PM,36.5,31.1,81,30.34,10.0,NNW,5.8,-,N/A,,Clear,340,2012-11-16 03:55:00
11:15 PM,36.3,31.1,81,30.35,10.0,NNW,3.5,-,N/A,,Clear,340,2012-11-16 04:15:00
11:35 PM,34.3,30.0,84,30.35,10.0,NNW,4.6,-,N/A,,Clear,330,2012-11-16 04:35:00
11:55 PM,33.3,29.7,87,30.35,10.0,NNW,3.5,-,N/A,,Clear,330,2012-11-16 04:55:00